COSMOS 2251 DEB, 34006

Orbit data source: Space-Track

COSMOS 2251 DEB, 34006 is space debris in LEO originally from a launch on Wed, 16 Jun 1993 UTC launched from the Plesetsk Missile And Space Complex (PKMTR). The debris from Iridium 33, an American commercial communications satellite, has been tracked extensively since its accidental collision with the defunct Russian satellite Cosmos 2251 in 2009. This event, occurring at high speed in low Earth orbit (LEO), generated thousands of pieces of space debris, significantly increasing the risk of further collisions. The Iridium 33 debris cloud has impacted space traffic management and orbital debris mitigation strategies, making it a subject of ongoing study in space situational awareness.

Loading next visibility...
Identifier
34006, 1993-036GR
Orbit
LEO
Country
Flag of CISCIS
Related business
Manufacturer
Unknown
Mission
Spacecraft
Bus & Motor
Unknown
Mass
Unknown
Launch date (UTC)
1993-06-16 (33 years ago)
Launch vehicle
Unknown
Launch site
Plesetsk Missile And Space Complex (PKMTR)
Object type
Payload
Rocket body
Debris
Shape & HBR
Unknown shape, 0.1 m
Radar Cross Section
Small (<0.1 m²)

Expand to show TLE details & history
Last TLE update: 13 hours ago

TLE from 13 hours ago
0 COSMOS 2251 DEB
1 34006U 93036GR  26106.41850124  .00028853  00000-0  19114-2 0  9998
2 34006  74.0488 249.7794 0006627 154.1706 231.8199 15.07171828905392
Epoch: 2026-04-16T10:02Z
TLE epoch observation values (Epoch: 2026-04-16T10:02:38.507Z)
Latitude
24.89898°
Longitude
-97.86554°
Altitude
550.458 km
Speed
7.588 km/s
True Right ascension
17h 09m 26s
True Declination
24° 45' 50"
Sunlit
Object was in full shadow at epoch
Visualization orbit readout
Latitude
Unknown
Longitude
Unknown
Altitude
Unknown
Speed
Unknown
Apparent Right ascension
Unknown
Apparent Declination
Unknown
Sunlit
N/A
Visualization observer readout
Local Sidereal Time
06:10:43
Azimuth
Unknown
Elevation
Unknown
Doppler factor
Unknown
Orbital elements
Apogee altitude
546.978 km
Perigee altitude
537.806 km
Semi-major axis
6,920.529 km
Eccentricity
0.00066
Inclination
74.0488°
RAAN
249.7794°
Arg. of periapsis
154.1706°
True anomaly
231.76024°
Mean anomaly
231.8199°
Eccentric anomaly
231.79007°
Mean motion
3.76994 °/min
Orbital period
95.49 mins
BSTAR
0.0019114
Loading maneuver chart data...
Computing Atmospheric mass density...

Documentation

Showing up to 5 results
|